Live-Position
3D-Globus wird geladen...
Über Starlink 36794
Group: 3 satellites
Beschreibung wird geladen...
Nächste Überflüge
Passes for default location (London). Set your location on the main map for personalized predictions.
Höhenverlauf
Loading altitude history...
No altitude history available
Zweizeiliger Elementsatz
1 68955C 26099E 26125.81437500 -.01515200 00000+0 -26754-2 0 1255
2 68955 53.1617 7.3730 0000414 97.6961 2.9617 16.01991563 12
Epoch: 5. Mai 2026 •
Age: 30 hours
Aktueller Status
Höhe 272.7 km
Geschwindigkeit 7.75 km/s
Subsatellitenpunkt 8.99°N,
140.54°W
Startdatum 1. Mai 2026
Alter 4 days
Typ internet
Startgruppe
Falcon 9 •
Starlink Group 10-38 •
29 satellites
Starlink 37258
68951
Starlink 37308 68952
Starlink 37337 68953
Starlink 37301 68954
Starlink 36760 68956
Starlink 37047 68957
Starlink 36242 68958
Starlink 37033 68959
Starlink 36978 68960
Starlink 36965 68961
Starlink 36765 68962
Starlink 36764 68963
Starlink 36731 68964
Starlink 36664 68965
Starlink 36402 68966
Starlink 36671 68967
Starlink 36665 68968
Starlink 36303 68969
Starlink 37257 68970
Starlink 37367 68971
...and 8 more
Technische Details
Klassifizierung Payload
Masse 575.00 kg
Trockenmasse 530.00 kg
Gesamtmasse 575.00 kg
Länge 0.30 m
Durchmesser 4.10 m
Spannweite 29.00 m
Form Box + pan
Hersteller SPXS
Bus-Typ Starlink V2MO
Phasenstatus In Orbit
Besitzer/Staat SPXS/US
Most Searched
Loading...